TIME,DELAY(SENSOR),PRES,OXYGEN,RAWTEMP,T(OPTODE),TCPHASE,FLUOR,BETA(BETA700),BETA(BETA412),BETA(BETA440),CDOM,C(CSC),ED(ED412.20),ED(ED444.00),ED(ED489.60),ED(ED554.30),LU(LU412.10),LU(LU443.90),LU(LU489.70),LU(LU554.70),COMP,TILTX,TILTY,CHECK
1347506497,5810,894.6400146484375000,34.7269096374511700,556.9207763671875000,4.5812869071960450,56.2925987243652340,55,101,101,78,84,15559,0,0,0,0,2147124361,2147770349,2147576539,2147572507,1305,3,13,16802
1347510093,5811,971.3300170898438000,37.9879684448242200,563.1990966796875000,4.3867068290710450,55.8445701599121100,56,99,101,79,82,15559,0,0,0,0,2147120576,2147771035,2147570377,2147572882,2834,3,13,39871
1347513693,5809,986.1500244140625000,38.8957481384277340,565.0128784179688000,4.3304309844970700,55.7267189025878900,56,99,100,77,81,15556,0,0,0,0,2147122486,2147773238,2147574564,2147570825,385,3,13,34013
1347517293,5808,989.9099731445312000,39.0811500549316400,565.4160766601562000,4.3179168701171875,55.7070198059082000,56,100,99,79,83,15555,0,0,0,0,2147121517,2147776539,2147581202,2147571446,3577,3,13,50931
1347520893,5812,991.4799804687500000,39.6250610351562500,565.9511718750000000,4.3013110160827640,55.6275787353515600,55,98,100,79,82,15555,0,0,0,0,2147121645,2147772370,2147575241,2147573202,3257,3,13,7264
1347524493,5808,995.6500244140625000,39.0309295654296900,566.0336914062500000,4.2987499237060550,55.7217292785644500,54,99,100,77,82,15555,0,0,0,0,2147121883,2147769682,2147577225,2147569782,3436,3,13,18837
1347528093,5810,997.4099731445312000,38.1546096801757800,565.9583740234375000,4.3010849952697750,55.8509292602539060,55,100,101,77,82,15553,0,0,0,0,2147121618,2147775798,2147577517,2147572050,439,3,13,23618
1347531693,5811,996.9400024414062000,37.9659690856933600,566.0042724609375000,4.2996640205383300,55.8782882690429700,54,98,102,77,83,15553,0,0,0,0,2147125248,2147776914,2147575762,2147573302,179,3,13,59518
1347535293,5811,1007.5900268554688000,38.5335884094238300,565.8914794921875000,4.3031640052795410,55.7906913757324200,55,99,100,77,83,15551,0,0,0,0,2147122276,2147772854,2147579648,2147569984,3449,3,13,63482
1347538893,5810,1002.5999755859375000,37.6772994995117200,565.9168701171875000,4.3023738861083980,55.9284706115722660,55,98,100,78,83,15551,0,0,0,0,2147121737,2147776749,2147579108,2147570806,12,3,13,24876
1347542493,5810,1002.1300048828125000,37.5604782104492200,565.8729858398438000,4.3037381172180180,55.9438095092773440,55,99,101,78,83,15548,0,0,0,0,2147122249,2147774774,2147575570,2147572763,3235,3,13,43770
1347546093,5810,1002.9799804687500000,37.6910018920898440,566.3099975585938000,4.2901730537414550,55.9221305847168000,54,99,99,78,83,15551,0,0,0,0,2147122267,2147774930,2147576100,2147572598,2815,3,13,63679
1347549693,5809,1005.2299804687500000,37.3450088500976560,565.9885864257812000,4.3001480102539060,55.9786987304687500,55,97,101,78,82,15550,0,0,0,0,2147122496,2147773952,2147574802,2147570313,3507,3,13,14806
1347553293,5810,1012.5999755859375000,38.0103912353515600,565.8917846679688000,4.3031520843505860,55.8732910156250000,55,99,101,77,82,15545,0,0,0,0,2147122541,2147772726,2147579172,2147574308,3536,3,13,57771
1347556893,5808,1005.2800292968750000,37.8660392761230500,565.8875732421875000,4.3032841682434080,55.8935508728027340,55,99,101,78,82,15549,0,0,0,0,2147121088,2147772836,2147577746,2147570450,3555,3,13,27508
1347560493,5810,1003.7500000000000000,37.7936782836914060,566.2694091796875000,4.2914309501647950,55.9117698669433600,54,99,102,78,81,15550,0,0,0,0,2147122084,2147774994,2147577536,2147569846,179,3,13,5278
1347564093,5810,1003.0900268554688000,37.8948402404785160,566.5894165039062000,4.2814998626708980,55.8956413269043000,56,99,101,77,82,15551,0,0,0,0,2147120658,2147774701,2147575469,2147573632,3149,3,13,43921
1347567693,5810,1002.6400146484375000,38.6590003967285160,566.5178833007812000,4.2837162017822270,55.7833404541015600,55,99,101,78,83,15548,0,0,0,0,2147122349,2147772882,2147575917,2147572260,164,3,13,15651
1347571293,5810,1003.3800048828125000,39.1276512145996100,567.1320190429688000,4.2646498680114750,55.7138404846191400,56,96,101,78,83,15544,0,0,0,0,2147122688,2147768064,2147576036,2147573156,218,3,13,44416
1347574893,5810,1006.2100219726562000,39.3877983093261700,567.1732788085938000,4.2633671760559080,55.6805801391601560,55,98,100,78,82,15547,0,0,0,0,2147124187,2147771684,2147579200,2147570605,3244,3,13,64241
1347578493,5811,1007.3200073242188000,38.6925010681152340,566.3212280273438000,4.2898249626159670,55.7740898132324200,54,99,102,79,83,15541,0,0,0,0,2147123254,2147771401,2147575616,2147570633,54,3,12,1479
1347582093,5809,1004.8499755859375000,38.2407493591308600,566.5883178710938000,4.2815341949462890,55.8468208312988300,55,100,101,77,81,15549,0,0,0,0,2147121965,2147776338,2147579053,2147570550,3567,3,13,17935
1347585693,5809,1003.4199829101562000,39.2651100158691400,567.4909057617188000,4.2535061836242680,55.7001914978027340,55,100,102,77,84,15546,0,0,0,0,2147126656,2147773650,2147573869,2147572269,291,3,13,41857
1347589293,5810,1008.9400024414062000,39.2509384155273440,567.3270263671875000,4.2585959434509280,55.6976890563964840,55,98,100,77,82,15546,0,0,0,0,2147124699,2147770505,2147574253,2147570221,3569,3,13,14111
1347592893,5808,1009.3200073242188000,39.2690696716308600,566.9555053710938000,4.2701320648193360,55.6914100646972660,56,101,100,79,83,15546,0,0,0,0,2147123520,2147768987,2147573750,2147571657,3591,3,13,22774
1347596493,5809,1004.6400146484375000,38.8444786071777340,567.0955200195312000,4.2657828330993650,55.7597389221191400,55,98,100,77,83,15544,0,0,0,0,2147126509,2147769691,2147576978,2147572516,3527,3,13,37922
1347600093,5810,1009.3699951171875000,39.1341781616210940,566.9152221679688000,4.2713828086853030,55.7143592834472660,54,101,101,78,82,15546,0,0,0,0,2147126299,2147772763,2147573421,2147571748,660,3,13,34623
1347603693,5810,1009.6900024414062000,38.7015495300293000,566.2440185546875000,4.2922210693359375,55.7682495117187500,56,99,101,78,83,15544,0,0,0,0,2147126272,2147774674,2147576219,2147570761,3466,3,13,25352
1347607293,5810,1008.8499755859375000,38.9010810852050800,566.5648193359375000,4.2822608947753910,55.7419395446777340,55,98,100,79,83,15545,0,0,0,0,2147120694,2147775323,2147577408,2147569499,106,3,13,64011
1347610893,5812,1011.2700195312500000,39.1517105102539060,566.3106079101562000,4.2901539802551270,55.7017707824707000,56,99,101,78,82,15540,0,0,0,0,2147125668,2147770368,2147573449,2147572781,44,3,13,18622
1347614493,5811,1010.4799804687500000,37.0935897827148440,566.1591796875000000,4.2948532104492190,56.0134887695312500,55,97,101,78,81,15544,0,0,0,0,2147124909,2147770980,2147579328,2147572022,47,3,12,41298
1347618093,5810,1006.0499877929688000,38.5103416442871100,566.1759033203125000,4.2943339347839355,55.7981910705566400,55,100,101,77,82,15543,0,0,0,0,2147123593,2147771666,2147570916,2147574317,3476,3,13,4818
1347621693,5809,1011.4199829101562000,39.1244010925293000,566.5006713867188000,4.2842497825622560,55.7102394104003900,55,98,100,78,82,15544,0,0,0,0,2147121508,2147766948,2147576566,2147569828,3582,3,13,42753
1347625293,5808,1010.7500000000000000,38.5804901123046900,567.8994140625000000,4.2408180236816410,55.8080291748046900,54,97,100,78,84,15545,0,0,0,0,2147120713,2147774418,2147575350,2147571684,170,3,13,61654
1347628893,5809,1012.9799804687500000,38.4490089416503900,567.0062255859375000,4.2685570716857910,55.8193283081054700,55,98,101,79,84,15538,0,0,0,0,2147124068,2147768530,2147571794,2147568219,198,3,13,45032
1347632493,5808,1013.4600219726562000,38.5761604309082000,567.9304809570312000,4.2398548126220700,55.8039093017578100,54,99,102,79,82,15543,0,0,0,0,2147124233,2147781202,2147571245,2147568832,258,3,13,62613
1347636093,5809,1014.3800048828125000,39.1525497436523440,566.6298828125000000,4.2802410125732420,55.7097702026367200,55,98,101,77,84,15540,0,0,0,0,2147123840,2147769362,2147571529,2147570971,55,3,13,25547
1347639693,5811,1010.4699707031250000,38.8281288146972660,567.4069213867188000,4.2561130523681640,55.7656402587890600,54,98,101,77,82,15543,0,0,0,0,2147123821,2147774555,2147569673,2147568914,99,3,13,10464
1347643293,5809,1012.9500122070312000,37.5271682739257800,568.4645996093750000,4.2232651710510250,55.9727897644043000,55,99,102,78,83,15541,0,0,0,0,2147122386,2147770870,2147571337,2147571803,135,3,13,20913
1347646893,5812,1013.2100219726562000,38.0326194763183600,567.9625854492188000,4.2388548851013180,55.8939781188964840,55,99,100,78,83,15544,0,0,0,0,2147121417,2147772763,2147573019,2147571227,81,3,13,43318
1347650493,5811,1011.9699707031250000,38.4549102783203100,568.0236206054688000,4.2369627952575680,55.8259391784668000,55,98,101,78,83,15544,0,0,0,0,2147119451,2147769810,2147573604,2147571090,14,3,13,38374
1347650756,5811,1011.5100097656250000,38.2788505554199200,567.9865722656250000,4.2381100654602050,55.8509483337402340,54,99,101,78,83,15538,0,0,0,0,2147120228,2147771894,2147573065,2147572397,90,3,12,28253
